Date String (YYYY-MM-DD hh:mm:ss) UTC,Instrument flags,Ambient pressure (hPa),Sample flow (lpm),Bypass flow (lpm),Sample temperature (°C),Ambient temperature (°C),ASC tube jacket temperature (°C),LED temperature (°C),Box temperature (°C),Sample RH (%),Span deviation,Mass concentration (μg/m³),Mass concentration (μg/m³),Mass concentration (μg/m³)
DateTimeUTC,F1_M11,P_M11,Q1_M11,Q2_M11,T1_M11,T2_M11,T3_M11,T4_M11,T5_M11,U1_M11,ZSPAN_M11,X2_M11,X0_M11,X1_M11
2023-02-17 20:00:00,,0826.8,5.01,0.00,25.5,24.4,00.0,34.2,27.3,08.6,0000.0,0002.52,0003.66,0002.07
2023-02-17 20:01:00,,0827.1,5.03,0.00,25.5,24.5,00.0,34.2,27.4,08.9,0000.0,0002.47,0003.50,0002.07
2023-02-17 20:02:00,,0827.1,5.02,0.00,25.5,24.5,00.0,34.2,27.4,08.2,0000.0,0002.43,0003.38,0002.05
2023-02-17 20:03:00,,0826.9,5.02,0.00,25.5,24.5,00.0,34.2,27.4,08.3,0000.0,0002.37,0003.25,0002.02
2023-02-17 20:04:00,,0826.7,4.98,0.00,25.5,24.5,00.0,34.2,27.4,08.6,0000.0,0002.36,0003.24,0002.01
2023-02-17 20:05:00,,0826.7,4.99,0.00,25.6,24.5,00.0,34.3,27.4,08.4,0000.0,0002.37,0003.29,0002.00
2023-02-17 20:06:00,,0826.7,4.97,0.00,25.6,24.5,00.0,34.3,27.4,08.2,0000.0,0002.35,0003.23,0001.98
2023-02-17 20:07:00,,0826.7,5.01,0.00,25.6,24.5,00.0,34.3,27.4,08.5,0000.0,0002.34,0003.27,0001.96
2023-02-17 20:08:00,,0826.7,5.00,0.00,25.6,24.5,00.0,34.3,27.5,08.5,0000.0,0002.34,0003.34,0001.96
2023-02-17 20:09:00,,0826.8,4.98,0.00,25.6,24.6,00.0,34.3,27.5,08.8,0000.0,0002.37,0003.60,0001.97
2023-02-17 20:10:00,,0827.1,5.00,0.00,25.6,24.6,00.0,34.3,27.5,08.7,0000.0,0002.36,0003.58,0001.98
2023-02-17 20:11:00,,0826.7,5.01,0.00,25.7,24.6,00.0,34.4,27.5,09.1,0000.0,0002.40,0003.72,0001.99
2023-02-17 20:12:00,,0826.7,4.98,0.00,25.7,24.6,00.0,34.4,27.5,08.9,0000.0,0002.43,0003.82,0001.99
2023-02-17 20:13:00,,0826.7,4.96,0.00,25.7,24.6,00.0,34.4,27.5,08.6,0000.0,0002.50,0003.98,0002.00
2023-02-17 20:14:00,,0826.7,4.99,0.00,25.7,24.7,00.0,34.4,27.5,08.7,0000.0,0002.59,0004.17,0002.04
2023-02-17 20:15:00,,0826.7,5.02,0.00,25.7,24.7,00.0,34.4,27.6,08.9,0000.0,0002.69,0004.41,0002.07
2023-02-17 20:16:00,,0826.7,4.99,0.00,25.7,24.7,00.0,34.4,27.6,08.7,0000.0,0002.75,0004.52,0002.10
2023-02-17 20:17:00,,0826.6,5.01,0.00,25.7,24.7,00.0,34.5,27.6,08.8,0000.0,0002.79,0004.59,0002.13
2023-02-17 20:18:00,,0826.6,5.02,0.00,25.8,24.7,00.0,34.5,27.6,08.9,0000.0,0002.81,0004.52,0002.16
2023-02-17 20:19:00,,0826.5,4.99,0.00,25.8,24.7,00.0,34.5,27.6,08.7,0000.0,0002.85,0004.53,0002.18
2023-02-17 20:20:00,,0826.5,4.99,0.00,25.8,24.7,00.0,34.5,27.6,08.9,0000.0,0002.85,0004.65,0002.20
2023-02-17 20:21:00,,0826.6,5.01,0.00,25.8,24.8,00.0,34.5,27.6,09.2,0000.0,0002.89,0005.38,0002.21
2023-02-17 20:22:00,,0826.6,4.98,0.00,25.8,24.8,00.0,34.5,27.7,09.1,0000.0,0002.92,0005.54,0002.23
2023-02-17 20:23:00,,0826.6,5.03,0.00,25.8,24.8,00.0,34.5,27.7,09.5,0000.0,0002.91,0005.47,0002.26
2023-02-17 20:24:00,,0826.6,4.99,0.00,25.8,24.8,00.0,34.6,27.7,08.7,0000.0,0002.87,0005.35,0002.26
2023-02-17 20:25:00,,0826.6,5.01,0.00,25.9,24.8,00.0,34.6,27.8,07.9,0000.0,0002.82,0005.26,0002.23
2023-02-17 20:26:00,,0826.6,5.02,0.00,25.9,24.8,00.0,34.6,27.8,07.7,0000.0,0002.75,0005.13,0002.19
2023-02-17 20:27:00,,0826.7,4.99,0.00,25.9,24.8,00.0,34.6,27.8,08.2,0000.0,0002.68,0004.99,0002.17
2023-02-17 20:28:00,,0826.6,5.03,0.00,25.9,24.9,00.0,34.6,27.8,08.6,0000.0,0002.65,0004.90,0002.17
2023-02-17 20:29:00,,0826.6,5.00,0.00,25.9,24.9,00.0,34.6,27.8,08.3,0000.0,0002.66,0004.92,0002.19
2023-02-17 20:30:00,,0826.5,5.02,0.00,26.0,24.9,00.0,34.7,27.8,08.3,0000.0,0002.66,0005.01,0002.20
2023-02-17 20:31:00,,0826.5,4.99,0.00,26.0,24.9,00.0,34.7,27.8,08.1,0000.0,0002.67,0004.98,0002.20
2023-02-17 20:32:00,,0826.5,5.00,0.00,26.0,24.9,00.0,34.7,27.9,08.0,0000.0,0002.64,0004.41,0002.18
2023-02-17 20:33:00,,0826.5,5.00,0.00,26.0,24.9,00.0,34.7,27.9,07.8,0000.0,0002.60,0004.21,0002.16
2023-02-17 20:34:00,,0826.5,4.99,0.00,26.0,25.0,00.0,34.7,27.9,07.2,0000.0,0002.54,0005.08,0002.10
2023-02-17 20:35:00,,0826.5,4.97,0.00,26.0,25.0,00.0,34.7,27.9,07.2,0000.0,0002.52,0005.76,0002.06
2023-02-17 20:36:00,,0826.5,5.00,0.00,26.0,25.0,00.0,34.7,27.9,07.6,0000.0,0002.51,0005.73,0002.06
2023-02-17 20:37:00,,0826.5,5.02,0.00,26.1,25.0,00.0,34.8,27.9,07.9,0000.0,0002.47,0005.74,0002.06
2023-02-17 20:38:00,,0826.5,4.99,0.00,26.1,25.0,00.0,34.8,27.9,07.9,0000.0,0002.45,0005.85,0002.06
2023-02-17 20:39:00,,0826.5,4.99,0.00,26.1,25.0,00.0,34.8,28.0,08.4,0000.0,0002.49,0006.03,0002.05
2023-02-17 20:40:00,,0826.5,4.98,0.00,26.1,25.0,00.0,34.8,28.0,08.6,0000.0,0002.46,0006.01,0002.02
2023-02-17 20:41:00,,0826.5,4.98,0.00,26.1,25.1,00.0,34.8,28.0,09.5,0000.0,0002.48,0005.98,0001.99
2023-02-17 20:42:00,,0826.5,5.01,0.00,26.1,25.0,00.0,34.8,28.0,09.4,0000.0,0002.49,0005.91,0002.02
2023-02-17 20:43:00,,0826.6,4.99,0.00,26.1,25.0,00.0,34.8,28.0,09.2,0000.0,0002.58,0006.08,0002.07
2023-02-17 20:44:00,,0826.5,5.00,0.00,26.1,25.0,00.0,34.8,28.0,09.2,0000.0,0002.66,0007.12,0002.12
2023-02-17 20:45:00,,0826.5,5.00,0.00,26.2,25.0,00.0,34.9,28.0,09.5,0000.0,0002.85,0006.99,0002.25
2023-02-17 20:46:00,,0826.5,5.00,0.00,26.2,25.0,00.0,34.9,28.0,09.3,0000.0,0002.98,0006.63,0002.37
2023-02-17 20:47:00,,0826.5,5.00,0.00,26.2,25.0,00.0,34.9,28.0,09.4,0000.0,0003.08,0006.75,0002.49
2023-02-17 20:48:00,,0826.5,5.01,0.00,26.2,25.0,00.0,34.9,28.1,09.6,0000.0,0003.19,0007.57,0002.61
2023-02-17 20:49:00,,0826.5,5.00,0.00,26.2,25.1,00.0,34.9,28.1,09.6,0000.0,0003.29,0007.69,0002.74
2023-02-17 20:50:00,,0826.4,5.02,0.00,26.2,25.0,00.0,34.9,28.1,09.4,0000.0,0003.36,0007.76,0002.85
2023-02-17 20:51:00,,0826.4,5.00,0.00,26.2,25.0,00.0,34.9,28.1,09.3,0000.0,0003.44,0007.90,0002.97
2023-02-17 20:52:00,,0826.3,4.99,0.00,26.2,25.0,00.0,34.9,28.1,09.4,0000.0,0003.48,0008.05,0003.07
2023-02-17 20:53:00,,0826.3,5.00,0.00,26.2,25.0,00.0,34.9,28.1,09.5,0000.0,0003.54,0008.86,0003.13
2023-02-17 20:54:00,,0826.2,5.01,0.00,26.2,25.1,00.0,34.9,28.1,09.3,0000.0,0003.55,0008.98,0003.15
2023-02-17 20:55:00,,0826.2,5.00,0.00,26.2,25.1,00.0,34.9,28.1,09.3,0000.0,0003.56,0008.55,0003.17
2023-02-17 20:56:00,,0826.2,4.99,0.00,26.2,25.1,00.0,35.0,28.1,09.1,0000.0,0003.54,0008.44,0003.17
2023-02-17 20:57:00,,0826.2,5.00,0.00,26.3,25.1,00.0,35.0,28.1,09.2,0000.0,0003.57,0008.62,0003.17
2023-02-17 20:58:00,,0826.1,4.97,0.00,26.3,25.1,00.0,35.0,28.1,09.3,0000.0,0003.56,0009.13,0003.17
2023-02-17 20:59:00,,0826.1,4.99,0.00,26.3,25.1,00.0,35.0,28.1,09.0,0000.0,0003.55,0009.25,0003.16
